{"data":{"norad_id":44387,"epoch":"2026-05-25T04:53:35.064384Z","epoch_age_seconds":47509,"freshness":"FRESH","line1":"1 44387U 19038A   26145.20387806  .00000207  00000+0  10959-3 0  9994","line2":"2 44387  98.9142 132.1520 0002399  84.0228 276.1223 14.24359322358028","mean_motion":14.24359322,"eccentricity":0.0002399,"inclination_deg":98.9142,"raan_deg":132.152,"arg_perigee_deg":84.0228,"mean_anomaly_deg":276.1223,"bstar":0.00010959,"rev_number":35802,"period_min":101.09808513613,"perigee_km":808.92293772453,"apogee_km":812.37211654065,"semimajor_km":7188.7845271326,"source":"CELESTRAK","updated_at":"2026-05-25T13:38:13.009009Z"}}